カタログに戻る

SL-12 DEB

LostHEO
NORAD 29463·DEBRIS·🇷🇺 Russia

打ち上げ May 31, 1989 から Baikonur Cosmodrome

Loading…

次のパス (今後24時間)

TLE

古いSource: Space-Track

元期: Mar 21, 2026, 12:17 UTC

1 29463U 89039DH  26080.51210798 -.00000011  00000-0  00000-0 0  9995
2 29463  64.0275 175.4791 2611340  87.1976 302.1375  7.12752259 20439

AllMySatでSL-12 DEBをリアルタイム追跡

Download on the App Store